{"data":{"norad_id":52863,"epoch":"2026-09-19T11:17:08.506176Z","epoch_age_seconds":157771,"freshness":"FRESH","line1":"1 52863U 22062AK  26262.47023734  .00000658  00000+0  30629-4 0  9996","line2":"2 52863  53.1607 222.1974 0001395  88.9579 271.1583 15.34387661235347","mean_motion":15.34387661,"eccentricity":0.0001395,"inclination_deg":53.1607,"raan_deg":222.1974,"arg_perigee_deg":88.9579,"mean_anomaly_deg":271.1583,"bstar":3.0629e-5,"rev_number":23534,"period_min":93.848512771637,"perigee_km":461.78561223162,"apogee_km":463.69421689078,"semimajor_km":6840.8769145612,"source":"CELESTRAK","updated_at":"2026-09-20T09:00:40.117525Z"}}